Weather History for KCMR - April, 2014

Change the Weather History Date:

Saturday, April 5, 2014

  Actual Average (KFLG) Record (KFLG)
Temperature  
Mean Temperature 36 °F 41 °F  
Max Temperature 48 °F 55 °F 75 °F (1959)
Min Temperature 24 °F 26 °F 8 °F (1958)
Degree Days  
Heating Degree Days 29 24  
Month to date heating degree days 124  
Since 1 July heating degree days 5831  
Cooling Degree Days 0 0  
Month to date cooling degree days 0  
Year to date cooling degree days 0  
Moisture  
Dew Point 16 °F    
Average Humidity 44    
Maximum Humidity 81    
Minimum Humidity 23    
Precipitation  
Precipitation 0.00 in 0.04 in 0.80 in (2001)
Month to date precipitation 0.24  
Year to date precipitation 6.57  
Snow  
Snow 0.00 in 0.30 in 7.20 in (2001)
Month to date snowfall 1.6  
Since 1 July snowfall 95.5  
Snow Depth -    
Sea Level Pressure  
Sea Level Pressure 30.01 in    
Wind  
Wind Speed 6 mph (SW)    
Max Wind Speed 18 mph    
Max Gust Speed 26 mph    
Visibility 10 miles    
Events      
T = Trace of Precipitation, MM = Missing Value Source: NWS Daily Summary

Daily Weather History Graph

Daily Weather History Graph

Search for Another Location

Airport or City:

Trip Planner

Search our weather history database for the weather conditions in past years. The results will help you decide how hot, cold, wet, or windy it might be!

Date:

Astronomy

Apr. 05, 2014 Rise Set
Actual Time 6:09 AM MST 6:53 PM MST
Civil Twilight 5:44 AM MST 7:19 PM MST
Nautical Twilight 5:13 AM MST 7:49 PM MST
Astronomical Twilight 4:42 AM MST 8:20 PM MST
Moon 10:28 AM MST (4/5) No Moon Set
Length of Visible Light 13h 35m
Length of Day
12h 43m
Waxing Crescent, 35% of the Moon is Illuminated
Apr 5
Waxing Crescent
Apr 7
First Quarter
Apr 15
Full
Apr 22
Last Quarter
Apr 28
New

Hourly Weather History & Observations

Time (MST) Temp. Windchill Dew Point Humidity Pressure Visibility Wind Dir Wind Speed Gust Speed Precip Events Conditions
12:15 AM 32.0 °F 27.5 °F 8.6 °F 38% 29.98 in 10.0 mi SSE 4.6 mph - N/A   Clear
12:35 AM 32.0 °F 25.6 °F 8.6 °F 38% 29.98 in 10.0 mi SSE 6.9 mph - N/A   Clear
12:55 AM 32.0 °F 24.8 °F 10.4 °F 41% 29.98 in 10.0 mi SE 8.1 mph - N/A   Clear
1:15 AM 30.2 °F 22.6 °F 8.6 °F 40% 29.97 in 10.0 mi SSE 8.1 mph - N/A   Clear
1:35 AM 30.2 °F 24.3 °F 8.6 °F 40% 29.97 in 10.0 mi SSE 5.8 mph - N/A   Clear
1:55 AM 30.2 °F 25.4 °F 10.4 °F 44% 29.97 in 10.0 mi SE 4.6 mph - N/A   Clear
2:15 AM 28.4 °F 21.2 °F 10.4 °F 47% 29.97 in 10.0 mi SSE 6.9 mph - N/A   Clear
2:35 AM 28.4 °F 21.2 °F 10.4 °F 47% 29.96 in 10.0 mi SSE 6.9 mph - N/A   Clear
2:55 AM 28.4 °F 22.2 °F 8.6 °F 43% 29.95 in 10.0 mi SSE 5.8 mph - N/A   Clear
3:15 AM 26.6 °F 19.1 °F 10.4 °F 51% 29.95 in 10.0 mi SE 6.9 mph - N/A   Clear
3:35 AM 24.8 °F 16.9 °F 10.4 °F 54% 29.95 in 10.0 mi SE 6.9 mph - N/A   Clear
3:55 AM 24.8 °F 16.9 °F 8.6 °F 50% 29.95 in 10.0 mi SSE 6.9 mph - N/A   Clear
4:15 AM 24.8 °F 16.1 °F 8.6 °F 50% 29.94 in 10.0 mi SE 8.1 mph - N/A   Partly Cloudy
4:35 AM 24.8 °F 16.9 °F 8.6 °F 50% 29.94 in 10.0 mi SE 6.9 mph - N/A   Partly Cloudy
4:55 AM 26.6 °F 19.1 °F 10.4 °F 51% 29.94 in 10.0 mi SE 6.9 mph - N/A   Scattered Clouds
5:15 AM 26.6 °F 19.1 °F 10.4 °F 51% 29.95 in 10.0 mi SE 6.9 mph - N/A   Mostly Cloudy
5:35 AM 28.4 °F 21.2 °F 10.4 °F 47% 29.95 in 10.0 mi SSE 6.9 mph - N/A   Mostly Cloudy
5:55 AM 28.4 °F 23.3 °F 10.4 °F 47% 29.95 in 10.0 mi SSE 4.6 mph - N/A   Mostly Cloudy
6:15 AM 28.4 °F 24.6 °F 10.4 °F 47% 29.96 in 10.0 mi South 3.5 mph - N/A   Scattered Clouds
6:35 AM 30.2 °F 25.4 °F 10.4 °F 44% 29.97 in 10.0 mi WNW 4.6 mph - N/A   Scattered Clouds
6:55 AM 33.8 °F 28.6 °F 12.2 °F 41% 29.97 in 10.0 mi West 5.8 mph - N/A   Partly Cloudy
7:15 AM 33.8 °F - 12.2 °F 41% 29.98 in 10.0 mi Calm Calm - N/A   Clear
7:35 AM 32.0 °F - 14.0 °F 48% 29.99 in 10.0 mi Calm Calm - N/A   Scattered Clouds
7:55 AM 37.4 °F 34.9 °F 12.2 °F 36% 29.99 in 10.0 mi WNW 3.5 mph - N/A   Overcast
8:15 AM 39.2 °F 35.9 °F 14.0 °F 36% 29.99 in 10.0 mi West 4.6 mph - N/A   Mostly Cloudy
8:35 AM 41.0 °F - 14.0 °F 33% 29.99 in 10.0 mi Calm Calm - N/A   Scattered Clouds
8:55 AM 41.0 °F 37.1 °F 14.0 °F 33% 29.99 in 10.0 mi West 5.8 mph - N/A   Partly Cloudy
9:15 AM 42.8 °F 41.1 °F 14.0 °F 31% 30.00 in 10.0 mi NW 3.5 mph - N/A   Scattered Clouds
9:35 AM 44.6 °F 39.7 °F 14.0 °F 29% 30.00 in 10.0 mi WSW 9.2 mph - N/A   Mostly Cloudy
9:55 AM 42.8 °F 37.5 °F 12.2 °F 29% 30.00 in 10.0 mi SW 9.2 mph - N/A   Mostly Cloudy
10:15 AM 44.6 °F 42.2 °F 14.0 °F 29% 30.00 in 10.0 mi West 4.6 mph - N/A   Mostly Cloudy
10:35 AM 44.6 °F 42.2 °F 12.2 °F 27% 30.01 in 10.0 mi SW 4.6 mph - N/A   Mostly Cloudy
10:55 AM 44.6 °F 42.2 °F 12.2 °F 27% 30.01 in 10.0 mi WNW 4.6 mph - N/A   Mostly Cloudy
11:15 AM 44.6 °F 42.2 °F 12.2 °F 27% 30.00 in 10.0 mi NNW 4.6 mph - N/A   Overcast
11:35 AM 44.6 °F - 12.2 °F 27% 30.00 in 10.0 mi Calm Calm - N/A   Overcast
11:55 AM 46.4 °F 42.9 °F 10.4 °F 23% 30.00 in 10.0 mi SW 6.9 mph - N/A   Scattered Clouds
12:15 PM 44.6 °F 39.7 °F 12.2 °F 27% 30.00 in 10.0 mi SSW 9.2 mph - N/A   Mostly Cloudy
12:35 PM 46.4 °F 42.4 °F 14.0 °F 27% 30.00 in 10.0 mi West 8.1 mph - N/A   Mostly Cloudy
12:55 PM 46.4 °F 40.7 °F 14.0 °F 27% 30.00 in 10.0 mi West 12.7 mph - N/A   Overcast
1:15 PM 48.2 °F - 14.0 °F 25% 29.99 in 10.0 mi SW 9.2 mph 20.7 mph N/A   Mostly Cloudy
1:35 PM 46.4 °F 41.9 °F 15.8 °F 29% 29.99 in 10.0 mi South 9.2 mph 18.4 mph N/A   Scattered Clouds
1:55 PM 46.4 °F 41.9 °F 14.0 °F 27% 29.99 in 10.0 mi NW 9.2 mph - N/A   Mostly Cloudy
2:15 PM 46.4 °F 41.9 °F 14.0 °F 27% 29.98 in 10.0 mi WNW 9.2 mph - N/A   Overcast
2:35 PM 46.4 °F 44.3 °F 14.0 °F 27% 29.98 in 10.0 mi NNW 4.6 mph - N/A   Mostly Cloudy
2:55 PM 46.4 °F 42.4 °F 17.6 °F 32% 29.99 in 10.0 mi West 8.1 mph 18.4 mph N/A   Mostly Cloudy
3:15 PM 46.4 °F - 15.8 °F 29% 29.98 in 10.0 mi Calm Calm - N/A   Partly Cloudy
3:35 PM 46.4 °F 44.3 °F 15.8 °F 29% 29.98 in 10.0 mi WSW 4.6 mph - N/A   Partly Cloudy
3:55 PM 48.2 °F - 15.8 °F 27% 29.98 in 10.0 mi SW 12.7 mph 26.5 mph N/A   Scattered Clouds
4:15 PM 48.2 °F - 15.8 °F 27% 29.99 in 10.0 mi WNW 11.5 mph 17.3 mph N/A   Scattered Clouds
4:35 PM 44.6 °F 36.9 °F 21.2 °F 39% 30.00 in 10.0 mi NW 18.4 mph 21.9 mph N/A   Scattered Clouds
4:55 PM 44.6 °F 43.1 °F 19.4 °F 37% 30.01 in 10.0 mi North 3.5 mph - N/A   Mostly Cloudy
5:15 PM 48.2 °F - 15.8 °F 27% 30.00 in 10.0 mi West 6.9 mph - N/A   Mostly Cloudy
5:35 PM 46.4 °F 40.7 °F 17.6 °F 32% 30.01 in 10.0 mi West 12.7 mph - N/A   Mostly Cloudy
5:55 PM 37.4 °F 27.8 °F 28.4 °F 70% 30.04 in 2.5 mi SW 17.3 mph - N/A   Overcast
6:15 PM 37.4 °F 32.1 °F 32.0 °F 81% 30.04 in 10.0 mi South 6.9 mph - N/A   Overcast
6:35 PM 39.2 °F 35.0 °F 28.4 °F 65% 30.04 in 10.0 mi SSE 5.8 mph - N/A   Overcast
6:55 PM 39.2 °F 35.9 °F 26.6 °F 61% 30.05 in 10.0 mi East 4.6 mph - N/A   Overcast
7:15 PM 39.2 °F 35.9 °F 26.6 °F 61% 30.05 in 10.0 mi ESE 4.6 mph - N/A   Mostly Cloudy
7:35 PM 39.2 °F - 26.6 °F 61% 30.06 in 10.0 mi Calm Calm - N/A   Overcast
7:55 PM 39.2 °F 37.0 °F 26.6 °F 61% 30.07 in 10.0 mi NW 3.5 mph - N/A   Overcast
8:15 PM 39.2 °F 37.0 °F 24.8 °F 56% 30.08 in 10.0 mi NW 3.5 mph - N/A   Overcast
8:35 PM - - - N/A% - 10.0 mi North - - N/A   Unknown
8:55 PM 37.4 °F - 24.8 °F 60% 30.10 in 10.0 mi Calm Calm - N/A   Mostly Cloudy
9:15 PM 37.4 °F - 24.8 °F 60% 30.10 in 10.0 mi Calm Calm - N/A   Overcast
9:35 PM 37.4 °F - 23.0 °F 56% 30.10 in 10.0 mi Calm Calm - N/A   Overcast
9:55 PM 37.4 °F 34.9 °F 23.0 °F 56% 30.11 in 10.0 mi WNW 3.5 mph - N/A   Scattered Clouds
10:15 PM 35.6 °F 31.7 °F 23.0 °F 60% 30.11 in 10.0 mi NW 4.6 mph - N/A   Clear
10:35 PM 33.8 °F - 23.0 °F 65% 30.11 in 10.0 mi Calm Calm - N/A   Clear
10:55 PM 28.4 °F - 23.0 °F 80% 30.11 in 10.0 mi Calm Calm - N/A   Clear
11:15 PM 32.0 °F - 23.0 °F 69% 30.12 in 10.0 mi Calm Calm - N/A   Clear
11:35 PM 26.6 °F 22.6 °F 21.2 °F 80% 30.12 in 10.0 mi ESE 3.5 mph - N/A   Clear
11:55 PM 28.4 °F - 21.2 °F 74% 30.12 in 10.0 mi Calm Calm - N/A   Clear